This demonstration page uses our WeatherBlox Daily Observations layout. Learn more.

36.19886, -115.1175

Hourly Observations for July 26, 2018

Temp ( °F °C ) Dew Point ( °F °C ) Humidity (%) Winds ( mph kmh ) Pressure ( in mb ) Visibility ( mi km ) Precip ( " mm )
12:53 am 00:53 Clear 99 37.2 48 8.9 18 18 NNE 5 7 29.85 1011 10 16.09344 0 0
1:53 am 01:53 Clear 98 36.7 46 7.8 17 17 N 3 6 29.85 1011 10 16.09344 0 0
2:53 am 02:53 Clear 95 35 46 7.8 19 19 N 9 15 29.85 1011 10 16.09344 0 0
3:53 am 03:53 Clear 95 35 45 7.2 18 18 WNW 7 11 29.85 1011 10 16.09344 0 0
4:53 am 04:53 Clear 94 34.4 46 7.8 19 19 NNW 9 15 29.85 1011 10 16.09344 0 0
5:53 am 05:53 Sunny 94 34.4 45 7.2 18 18 N 7 11 29.85 1011 10 16.09344 0 0
6:53 am 06:53 Sunny 94 34.4 45 7.2 18 18 N 6 9 29.88 1012 10 16.09344 0 0
7:53 am 07:53 Sunny 96 35.6 47 8.3 19 19 N 7 11 29.88 1012 10 16.09344 0 0
8:53 am 08:53 Sunny 98 36.7 46 7.8 17 17 NW 5 7 29.91 1013 10 16.09344 0 0
9:53 am 09:53 Sunny 102 38.9 46 7.8 15 15 Calm 29.88 1012 10 16.09344 0 0
10:53 am 10:53 Sunny 104 40 45 7.2 13 13 Calm 29.88 1012 10 16.09344 0 0
11:53 am 11:53 Sunny 106 41.1 45 7.2 13 13 N 3 6 29.88 1012 10 16.09344 0 0
12:53 pm 12:53 Sunny 107 41.7 45 7.2 12 12 SSE 6 9 29.85 1011 10 16.09344 0 0
1:53 pm 13:53 Sunny 111 43.9 45 7.2 11 11 N 5 7 29.83 1010 10 16.09344 0 0
2:50 pm 14:50 Sunny with Nearby Thunderstorms 109 43 45 7 11 11 N 3 6 29.65 1004 10 16.09344 0 0
2:53 pm 14:53 Sunny with Nearby Thunderstorms 110 43.3 44 6.7 11 11 Calm 29.8 1009 10 16.09344 0 0
3:13 pm 15:13 Sunny 112 44.4 43 6.1 10 10 NNW 13 20 29.62 1003 10 16.09344 0 0
3:53 pm 15:53 Sunny 111 43.9 43 6.1 10 10 NNW 6 9 29.77 1008 10 16.09344 0 0
4:53 pm 16:53 Sunny 110 43.3 43 6.1 10 10 S 5 7 29.77 1008 10 16.09344 0 0
5:53 pm 17:53 Sunny 111 43.9 43 6.1 10 10 NW 17 28 29.74 1007 10 16.09344 0 0
6:53 pm 18:53 Sunny 109 42.8 43 6.1 11 11 NNW 15 24 29.74 1007 10 16.09344 0 0
7:53 pm 19:53 Clear 105 40.6 44 6.7 13 13 NNW 15 24 29.77 1008 10 16.09344 0 0
8:53 pm 20:53 Clear 103 39.4 45 7.2 14 14 NNW 15 24 29.77 1008 10 16.09344 0 0
9:53 pm 21:53 Clear 100 37.8 47 8.3 16 16 NNW 12 19 29.8 1009 10 16.09344 0 0
10:53 pm 22:53 Clear 100 37.8 46 7.8 16 16 WNW 10 17 29.8 1009 10 16.09344 0 0
11:53 pm 23:53 Clear 97 36.1 46 7.8 17 17 NNE 9 15 29.8 1009 10 16.09344 0 0

Powered by AerisWeather